This is the latest recevied weather packets stored in our database for station/object KB3VSP. If no packets are shown the sender has not sent any weather packets the latest 10 day(s).
| Time | Temp. | Humidity | Pressure | Rain* | Wind** | Luminosity | Snow |
|---|---|---|---|---|---|---|---|
| 1777469746 | 12.78° C | 99% | 1010.2 hPa | 0 mm | - | 36 W/m² | - |
| 1777469442 | 12.78° C | 99% | 1010.3 hPa | 0 mm | - | 34 W/m² | - |
| 1777469136 | 12.78° C | 99% | 1010.9 hPa | 0 mm | - | 36 W/m² | - |
| 1777468831 | 12.78° C | 99% | 1010.9 hPa | 0 mm | - | 32 W/m² | - |
| 1777468528 | 12.78° C | 99% | 1011.3 hPa | 0 mm | - | 16 W/m² | - |
| 1777468224 | 12.78° C | 99% | 1011.4 hPa | 0 mm | - | 15 W/m² | - |
| 1777467921 | 12.78° C | 99% | 1011.3 hPa | 0 mm | - | 15 W/m² | - |
| 1777467617 | 12.78° C | 99% | 1011.4 hPa | 0 mm | - | 7 W/m² | - |
| 1777467312 | 12.78° C | 99% | 1011.7 hPa | 0 mm | - | 8 W/m² | - |
| 1777467008 | 12.78° C | 99% | 1011.5 hPa | 0 mm | - | 15 W/m² | - |
| 1777466706 | 12.78° C | 99% | 1011.2 hPa | 0 mm | - | 11 W/m² | - |
| 1777466403 | 12.78° C | 99% | 1010.8 hPa | 0 mm | - | 12 W/m² | - |
| 1777466099 | 12.78° C | 99% | 1010.7 hPa | 0 mm | - | 13 W/m² | - |
| 1777465795 | 12.78° C | 99% | 1010.7 hPa | 0 mm | - | 10 W/m² | - |
| 1777465491 | 12.78° C | 99% | 1010.9 hPa | 0 mm | - | 11 W/m² | - |
| 1777465190 | 12.78° C | 99% | 1010.4 hPa | 0 mm | - | 12 W/m² | - |
| 1777464885 | 12.78° C | 99% | 1010.7 hPa | 0 mm | - | 12 W/m² | - |
| 1777464581 | 12.78° C | 99% | 1010.8 hPa | 0 mm | - | 19 W/m² | - |
| 1777464278 | 12.78° C | 99% | 1011.1 hPa | 0 mm | - | 12 W/m² | - |
| 1777463973 | 12.78° C | 99% | 1011.2 hPa | 0 mm | - | 10 W/m² | - |
| 1777463668 | 12.78° C | 99% | 1011.1 hPa | 0 mm | - | 5 W/m² | - |
| 1777463363 | 12.78° C | 99% | 1010.9 hPa | 0 mm | - | 8 W/m² | - |
| 1777463060 | 12.78° C | 99% | 1011.3 hPa | 0 mm | - | 4 W/m² | - |
| 1777462755 | 12.78° C | 99% | 1011.7 hPa | 0 mm | - | 4 W/m² | - |
| 1777462451 | 12.78° C | 99% | 1011.8 hPa | 0 mm | - | 7 W/m² | - |
* Rain latest hour (hover to see other rain measurements)
** Current wind speed in m/s (hover to see current wind gust speed)